This is the latest recevied weather packets stored in our database for station/object W0JRT-6. If no packets are shown the sender has not sent any weather packets the latest 10 day(s).
| Time | Temp. | Humidity | Pressure | Rain* | Wind** | Luminosity | Snow |
|---|---|---|---|---|---|---|---|
| 1777930801 | 27.22° C | 41% | 995.1 hPa | 0 mm | - | - | - |
| 1777930197 | 27.22° C | 36% | 995.1 hPa | 0 mm | - | - | - |
| 1777929606 | 27.22° C | 36% | 995.1 hPa | 0 mm | - | - | - |
| 1777929283 | 27.78° C | 36% | 995 hPa | 0 mm | - | - | - |
| 1777929003 | 27.78° C | 36% | 995 hPa | 0 mm | - | - | - |
| 1777928401 | 27.22° C | 36% | 995.1 hPa | 0 mm | - | - | - |
| 1777927862 | 27.78° C | 36% | 995.1 hPa | 0 mm | - | - | - |
| 1777927802 | 27.78° C | 36% | 995.1 hPa | 0 mm | - | - | - |
| 1777926611 | 28.33° C | 37% | 995.4 hPa | 0 mm | - | - | - |
| 1777925400 | 27.78° C | 36% | 995.6 hPa | 0 mm | - | - | - |
| 1777924212 | 27.78° C | 34% | 995.7 hPa | 0 mm | - | - | - |
| 1777923598 | 27.22° C | 34% | 995.7 hPa | 0 mm | - | - | - |
| 1777922401 | 27.22° C | 35% | 995.7 hPa | 0 mm | - | - | - |
| 1777921207 | 27.22° C | 37% | 995.9 hPa | 0 mm | - | - | - |
| 1777920598 | 26.67° C | 37% | 996 hPa | 0 mm | - | - | - |
| 1777920003 | 26.67° C | 40% | 996 hPa | 0 mm | - | - | - |
| 1777919403 | 26.67° C | 38% | 996.1 hPa | 0 mm | - | - | - |
| 1777918801 | 26.11° C | 40% | 996.1 hPa | 0 mm | - | - | - |
| 1777918203 | 26.67° C | 40% | 996.2 hPa | 0 mm | - | - | - |
| 1777917598 | 26.11° C | 41% | 996.3 hPa | 0 mm | - | - | - |
| 1777917007 | 26.11° C | 39% | 996.5 hPa | 0 mm | - | - | - |
| 1777916403 | 26.11° C | 39% | 996.6 hPa | 0 mm | - | - | - |
| 1777915802 | 25.56° C | 40% | 996.6 hPa | 0 mm | - | - | - |
| 1777915203 | 25.56° C | 41% | 996.6 hPa | 0 mm | - | - | - |
| 1777914606 | 25° C | 40% | 996.9 hPa | 0 mm | - | - | - |
* Rain since midnight (hover to see other rain measurements)
** Current wind speed in m/s (hover to see current wind gust speed)